Simultaneous Nadir Overpasses (SNOs) Predictions

Prediction of SNOs between AQUA and NOAA-19 Satellite Orbit:

Table of predicted SNOs for the next 14.0 days since TLE Epoch: 7/10/2015
Index Date (AQUA) Time (AQUA) Lat,Lon (AQUA) SZA (AQUA ) Date (NOAA-19) Time (NOAA-19) Lat,Lon (NOAA-19) SZA (NOAA-19 ) Distance(km) Time Diff (sec)
1 07/11/2015 15:09:00 80.17, -79.05 59.76 07/11/2015 15:08:42 80.16, -79.00 59.76 1.35 18
2 07/11/2015 15:58:03 -79.34, 94.88 121.53 07/11/2015 15:59:17 -79.49, 95.51 121.49 20.78 74
3 07/13/2015 19:53:17 80.21,-150.44 60.14 07/13/2015 19:52:03 80.20,-150.29 60.15 2.86 74
4 07/13/2015 20:42:41 -80.14, 17.79 119.97 07/13/2015 20:43:01 -80.15, 17.66 119.96 2.53 20
5 07/16/2015 01:26:59 -80.21, -53.93 119.51 07/16/2015 01:26:24 -80.22, -54.08 119.47 2.94 35
6 07/16/20
